{"data":{"norad_id":66178,"epoch":"2026-05-24T23:40:17.121792Z","epoch_age_seconds":79381,"freshness":"FRESH","line1":"1 66178U 25243B   26144.98630928  .00022165  00000+0  75812-3 0  9997","line2":"2 66178  53.1570 250.9663 0001146  65.1138 294.9982 15.30204997 32332","mean_motion":15.30204997,"eccentricity":0.0001146,"inclination_deg":53.157,"raan_deg":250.9663,"arg_perigee_deg":65.1138,"mean_anomaly_deg":294.9982,"bstar":0.00075812,"rev_number":3233,"period_min":94.105038398329,"perigee_km":474.41475688133,"apogee_km":475.98554175595,"semimajor_km":6853.3371493186,"source":"CELESTRAK","updated_at":"2026-05-25T13:38:21.075023Z"}}